Weather History for Lake Charles Regional, LA

Change the Weather History Date:

Thursday, March 21, 2013

  Actual Average Record
Temperature  
Mean Temperature 60 °F 62 °F  
Max Temperature 70 °F 73 °F 87 °F (1910)
Min Temperature 50 °F 52 °F 32 °F (1965)
Degree Days  
Heating Degree Days 5 4  
Month to date heating degree days 150 127  
Since 1 July heating degree days 1119 1409  
Cooling Degree Days 0 2  
Month to date cooling degree days 15 29  
Year to date cooling degree days 45 52  
Growing Degree Days 10 (Base 50)    
Moisture  
Dew Point 44 °F    
Average Humidity 53    
Maximum Humidity 78    
Minimum Humidity 28    
Precipitation  
Precipitation T in 0.12 in 3.06 in (1949)
Month to date precipitation 1.19 2.47  
Year to date precipitation 17.78 11.16  
Snow  
Snow 0.00 in 0.00 in 0.00 in ()
Month to date snowfall 0.0 0.0  
Since 1 July snowfall 0.0 0.1  
Snow Depth 0.00 in    
Sea Level Pressure  
Sea Level Pressure 29.95 in    
Wind  
Wind Speed 11 mph (ESE)    
Max Wind Speed 23 mph    
Max Gust Speed 28 mph    
Visibility 10 miles    
Events      
T = Trace of Precipitation, MM = Missing Value Source: NWS Daily Summary

Daily Weather History Graph

Daily Weather History Graph

Search for Another Location

Airport:

Trip Planner

Search our weather history database for the weather conditions in past years. The results will help you decide how hot, cold, wet, or windy it might be!

Date:

Astronomy

Mar. 21, 2013 Rise Set
Actual Time 7:15 AM CDT 7:25 PM CDT
Civil Twilight 6:51 AM CDT 7:49 PM CDT
Nautical Twilight 6:23 AM CDT 8:16 PM CDT
Astronomical Twilight 5:55 AM CDT 8:45 PM CDT
Moon 2:15 PM CDT (3/21) 3:16 AM CDT (3/21)
Length of Visible Light 12h 57m
Length of Day
12h 09m
Waxing Gibbous, 69% of the Moon is Illuminated
Mar 21
Waxing Gibbous
Mar 27
Full
Apr 2
Last Quarter
Apr 10
New
Apr 18
First Quarter

Hourly Weather History & Observations

Time (CDT) Temp. Dew Point Humidity Pressure Visibility Wind Dir Wind Speed Gust Speed Precip Events Conditions
12:53 AM 51.8 °F 44.6 °F 76% 30.05 in 10.0 mi Calm Calm - N/A   Clear
1:53 AM 53.1 °F 41.0 °F 64% 30.05 in 10.0 mi NE 3.5 mph - N/A   Clear
2:53 AM 53.1 °F 41.0 °F 64% 30.04 in 10.0 mi NE 4.6 mph - N/A   Clear
3:53 AM 52.0 °F 42.1 °F 69% 30.04 in 10.0 mi ENE 3.5 mph - N/A   Clear
4:53 AM 52.0 °F 42.1 °F 69% 30.03 in 10.0 mi ENE 3.5 mph - N/A   Clear
5:53 AM 51.1 °F 43.0 °F 74% 30.03 in 10.0 mi ENE 6.9 mph - N/A   Clear
6:53 AM 52.0 °F 39.0 °F 61% 30.03 in 10.0 mi East 5.8 mph - N/A   Clear
7:53 AM 51.1 °F 42.1 °F 71% 30.03 in 10.0 mi East 5.8 mph - N/A   Clear
8:53 AM 55.9 °F 41.0 °F 57% 30.04 in 10.0 mi ESE 10.4 mph - N/A   Clear
9:53 AM 62.1 °F 43.0 °F 50% 30.04 in 10.0 mi SE 8.1 mph - N/A   Scattered Clouds
10:53 AM 66.0 °F 42.1 °F 42% 30.03 in 10.0 mi ESE 15.0 mph 19.6 mph N/A   Partly Cloudy
11:53 AM 69.1 °F 35.1 °F 29% 30.01 in 10.0 mi SE 16.1 mph - N/A   Clear
12:53 PM 66.9 °F 37.0 °F 33% 29.99 in 10.0 mi South 9.2 mph 21.9 mph N/A   Partly Cloudy
1:53 PM 69.1 °F 39.9 °F 35% 29.95 in 10.0 mi SSE 17.3 mph 24.2 mph N/A   Mostly Cloudy
2:53 PM 68.0 °F 39.9 °F 36% 29.91 in 10.0 mi SSE 18.4 mph 24.2 mph N/A   Scattered Clouds
3:53 PM 69.1 °F 44.1 °F 40% 29.89 in 10.0 mi SSE 18.4 mph 24.2 mph N/A   Partly Cloudy
4:53 PM 68.0 °F 46.9 °F 47% 29.86 in 10.0 mi SSE 17.3 mph 25.3 mph N/A   Clear
5:53 PM 66.0 °F 48.0 °F 52% 29.84 in 10.0 mi SSE 17.3 mph - N/A   Mostly Cloudy
6:53 PM 64.0 °F 46.9 °F 54% 29.85 in 10.0 mi SSE 13.8 mph - N/A   Overcast
7:53 PM 62.1 °F 48.9 °F 62% 29.84 in 10.0 mi SE 12.7 mph - N/A   Scattered Clouds
8:53 PM 62.1 °F 48.9 °F 62% 29.82 in 10.0 mi SE 12.7 mph - N/A   Overcast
9:53 PM 62.1 °F 51.1 °F 67% 29.83 in 10.0 mi ESE 11.5 mph - N/A   Overcast
10:53 PM 63.0 °F 54.0 °F 72% 29.84 in 10.0 mi ESE 10.4 mph - N/A   Overcast
11:43 PM 62.6 °F 55.4 °F 77% 29.82 in 10.0 mi East 6.9 mph - N/A   Overcast
11:53 PM 63.0 °F 55.0 °F 75% 29.84 in 10.0 mi ESE 9.2 mph - N/A   Overcast